S51DM-13 Weather Reports


time (UTC)temp
C
wind
direction
speed
KPH
gust
KPH
rain 1hr
cm
rain 24hr
cm
rain mn
cm
humidity
%
barometer
mb
20260906022705 14 0 0.0 0.0 0.00 0.00 0.00 96 1022.9
20260906021805 14 0 0.0 0.0 0.00 0.00 0.00 96 1022.7
20260906020905 15 0 0.0 0.0 0.00 0.00 0.00 96 1022.7
20260906020004 15 0 0.0 0.0 0.00 0.00 0.00 96 1022.8
20260906015403 15 0 0.0 0.0 0.00 0.00 0.00 96 1022.7
20260906014503 15 0 0.0 0.0 0.00 0.00 0.00 96 1022.7
20260906013603 15 0 0.0 0.0 0.00 0.00 0.00 96 1022.7
20260906012919 15 0 0.0 0.0 0.00 0.00 0.00 96 1022.7
20260906011803 15 0 0.0 0.0 0.00 0.00 0.00 96 1022.8
20260906011119 15 0 0.0 0.0 0.00 0.00 0.00 96 1022.8
20260906010216 15 0 0.0 0.0 0.00 0.00 0.00 96 1022.9
20260906005618 15 0 0.0 0.0 0.00 0.00 0.00 96 1022.7
20260906004503 15 0 0.0 0.0 0.00 0.00 0.00 96 1022.7
20260906003603 15 0 0.0 0.0 0.00 0.00 0.00 96 1022.6
20260906002705 16 0 0.0 0.0 0.00 0.00 0.00 95 1022.6
20260906001805 16 0 0.0 0.0 0.00 0.00 0.00 95 1022.7
20260906000903 16 0 0.0 0.0 0.00 0.00 0.00 95 1022.5
20260906000004 16 0 0.0 0.0 0.00 0.00 0.00 95 1022.4
20260905235618 16 0 0.0 0.0 0.00 0.00 0.00 95 1022.3
20260905234505 16 0 0.0 0.0 0.00 0.00 0.00 95 1022.5
20260905233818 16 0 0.0 0.0 0.00 0.00 0.00 95 1022.4
20260905232705 16 0 0.0 0.0 0.00 0.00 0.00 94 1022.3
20260905232019 16 0 0.0 0.0 0.00 0.00 0.00 94 1022.2
20260905230903 16 0 0.0 0.0 0.00 0.00 0.00 94 1022.3
20260905230005 16 0 0.0 0.0 0.00 0.00 0.00 94 1022.3
20260905225403 16 0 0.0 0.0 0.00 0.00 0.00 94 1022.3
20260905224503 17 0 0.0 0.0 0.00 0.00 0.00 93 1022.2
20260905223605 17 0 0.0 0.0 0.00 0.00 0.00 93 1022.1
20260905222703 17 0 0.0 0.0 0.00 0.00 0.00 93 1022.0
20260905221805 17 2 0.0 1.6 0.00 0.00 0.00 93 1022.3
20260905220903 17 0 0.0 0.0 0.00 0.00 0.00 92 1022.0
20260905220005 17 0 0.0 0.0 0.00 0.00 0.00 92 1022.3
20260905215405 17 0 0.0 0.0 0.00 0.00 0.00 92 1022.1
20260905214505 17 2 0.0 1.6 0.00 0.00 0.00 91 1022.0
20260905213603 18 20 0.0 1.6 0.00 0.00 0.00 90 1021.8
20260905212705 18 19 0.0 1.6 0.00 0.00 0.00 90 1021.8
20260905212018 18 19 0.0 1.6 0.00 0.00 0.00 90 1021.5
20260905210905 18 0 0.0 0.0 0.00 0.00 0.00 90 1021.5
20260905210005 18 0 0.0 0.0 0.00 0.00 0.00 90 1021.7
20260905205405 18 0 0.0 0.0 0.00 0.00 0.00 90 1021.4
20260905204505 18 34 0.0 1.6 0.00 0.00 0.00 89 1021.5
20260905203817 18 26 0.0 3.2 0.00 0.00 0.00 89 1021.4
20260905202705 18 19 0.0 1.6 0.00 0.00 0.00 88 1021.5
20260905202018 18 25 0.0 1.6 0.00 0.00 0.00 88 1021.3
20260905200905 18 32 0.0 1.6 0.00 0.00 0.00 87 1021.2
20260905200004 18 0 0.0 0.0 0.00 0.00 0.00 87 1021.4
20260905195403 18 0 0.0 0.0 0.00 0.00 0.00 86 1021.1
20260905194505 18 0 0.0 0.0 0.00 0.00 0.00 85 1020.9
20260905193605 19 0 0.0 0.0 0.00 0.00 0.00 84 1020.6
20260905192705 19 40 0.0 1.6 0.00 0.00 0.00 83 1020.7
20260905191805 19 49 0.0 1.6 0.00 0.00 0.00 83 1020.5
20260905190903 19 49 0.0 1.6 0.00 0.00 0.00 82 1020.4
20260905190003 19 0 0.0 0.0 0.00 0.00 0.00 82 1020.2
20260905185403 19 64 0.0 1.6 0.00 0.00 0.00 81 1020.5
20260905184505 19 88 0.0 1.6 0.00 0.00 0.00 80 1020.4
20260905183605 20 108 0.0 1.6 0.00 0.00 0.00 76 1020.4
20260905182705 20 0 0.0 0.0 0.00 0.00 0.00 73 1019.6
20260905182018 20 0 0.0 0.0 0.00 0.00 0.00 72 1019.7
20260905180903 20 113 0.0 1.6 0.00 0.00 0.00 71 1019.8
20260905180003 20 0 0.0 0.0 0.00 0.00 0.00 69 1019.6
20260905175404 20 0 0.0 0.0 0.00 0.00 0.00 68 1019.4
20260905174503 20 0 0.0 0.0 0.00 0.00 0.00 67 1019.5
20260905173605 21 0 0.0 0.0 0.00 0.00 0.00 66 1018.9
20260905172705 21 0 0.0 0.0 0.00 0.00 0.00 63 1019.0
20260905172019 21 114 0.0 1.6 0.00 0.00 0.00 64 1018.8
20260905170905 21 0 0.0 0.0 0.00 0.00 0.00 63 1018.7
20260905170220 22 0 0.0 0.0 0.00 0.00 0.00 61 1018.9
20260905165403 22 130 0.0 1.6 0.00 0.00 0.00 60 1018.6
20260905164505 22 34 0.0 1.6 0.00 0.00 0.00 58 1018.6
20260905163605 23 336 0.0 1.6 0.00 0.00 0.00 56 1018.6
20260905162703 23 137 0.0 3.2 0.00 0.00 0.00 55 1018.5
20260905161805 23 128 0.0 1.6 0.00 0.00 0.00 55 1018.4
20260905160905 23 110 1.6 4.8 0.00 0.00 0.00 55 1018.5
20260905160005 23 119 1.6 3.2 0.00 0.00 0.00 53 1018.4
20260905155403 23 111 1.6 3.2 0.00 0.00 0.00 53 1018.5
20260905154718 24 75 0.0 1.6 0.00 0.00 0.00 52 1018.7
20260905153603 24 77 0.0 3.2 0.00 0.00 0.00 52 1018.6
20260905152704 24 94 0.0 3.2 0.00 0.00 0.00 52 1018.7
20260905151804 25 118 0.0 3.2 0.00 0.00 0.00 50 1018.6
20260905150905 24 93 1.6 3.2 0.00 0.00 0.00 54 1018.4
20260905150004 25 140 1.6 3.2 0.00 0.00 0.00 50 1018.5
20260905145411 26 123 1.6 3.2 0.00 0.00 0.00 48 1018.6
20260905144505 26 88 0.0 4.8 0.00 0.00 0.00 47 1018.5
20260905143603 24 105 0.0 3.2 0.00 0.00 0.00 55 1018.5
20260905142919 22 306 0.0 3.2 0.00 0.00 0.00 61 1018.7
20260905141805 22 334 1.6 6.4 0.00 0.00 0.00 65 1019.1
20260905140909 21 315 0.0 1.6 0.00 0.00 0.00 64 1019.3
20260905140005 21 284 0.0 4.8 0.00 0.00 0.00 66 1019.0
20260905135405 21 273 1.6 4.8 0.00 0.00 0.00 66 1019.2
20260905134504 21 333 3.2 9.7 0.00 0.00 0.00 68 1019.0
20260905133605 21 312 3.2 9.7 0.00 0.00 0.00 65 1019.0
20260905132703 22 71 1.6 3.2 0.00 0.00 0.00 62 1018.8